IRIDIUM 137 (43076 NORAD) Tracking and Keplerian Element Data

This shows tracking and keplerian element data for the satellite.

Feedback or suggestion? Click here.




ElementValue
Catalog43076
NameIRIDIUM 137
Epoch Orbit31714
Epoch Day12.93915332
Epoch Year2024
RAAN332.5137
Inclination86.3987
Eccentricity0.0002061
Argument of Perigee94.5171
Mean Anonmoly265.626
Mean Motion14.34217738
Decay Rate3.87E-06
L11 43076U 17083G 24012.93915332 .00000387 00000+0 13125-3 0 9995
L22 43076 86.3987 332.5137 0002061 94.5171 265.6260 14.34217738317146



Live tracking and technical data element details for IRIDIUM 137 (NORAD 43076). IRIDIUM 137 can be tracked NOW for your location showing map with azimuth and elevation plus other details from your city location.







IsCatalogInMostPopularTable: catalog: 43076, numindb: 727
Update: records affected: 1



GetName: 43076 IRIDIUM 137

Hit Count: updated at: Fri, 19 Apr 2024 12:17:34 GMT